Tracking 29059 objects as of 17-Jun-2024
HD Live streaming from Space Station
objects crossing your sky now

ONEWEB-0118

Track ONEWEB-0118 now!
10-day predictions
ONEWEB-0118 is classified as:


NORAD ID: 47264
Int'l Code: 2020-100G
Perigee: 1,219.7 km
Apogee: 1,222.0 km
Inclination: 87.9 °
Period: 109.7 minutes
Semi major axis: 7591 km
RCS: Unknown
Launch date: December 18, 2020
Source: United Kingdom (UK)
Launch site: VOSTOCHNY COSMODROME (VOSTO)
Your satellite tracking list
Your tracking list is empty




NASA's NSSDC Master Catalog

Two Line Element Set (TLE):
1 47264U 20100G   24168.90273980  .00000419  00000-0  11286-2 0  9999
2 47264  87.8937 136.0558 0001561  82.3094 277.8212 13.12445704168931
Source of the keplerian elements: AFSPC